Regional Weather Roundup
Issued by NWS Wakefield, VA

Home | Current Version | Previous Version | Graphics & Text | Print | Product List | Glossary On
Versions: 1 2 3 4 5 6 7 8 9 10 11 12 13 14 15 16 17 18 19 20 21 22 23 24 25 26 27 28 29 30 31 32 33 34 35 36 37 38 39 40 41 42 43 44 45 46 47 48 49
693
ASUS41 KAKQ 081814
RWRAKQ

REGIONAL WEATHER ROUNDUP
NATIONAL WEATHER SERVICE WAKEFIELD VA
100 PM EST MON FEB 08 2016

Note: "fair" indicates few or no clouds below 12,000 feet with no
significant weather and/or obstructions to visibility. * = Denotes
station may not report precipitation (e.g., rain,snow,etc.),
thunder or fog.

VAZ042-051-052>054-056-081900-
NORTHERN VIRGINIA

CITY           SKY/WX    TMP DP  RH WIND       PRES   REMARKS
WASH NATIONAL  PTSUNNY   45  29  53 VRB3      29.72F
DULLES         PTSUNNY   45  25  45 S7        29.71F
FORT BELVOIR   FAIR      46  27  47 VRB6      29.71F
QUANTICO       FAIR      44  27  51 SW6       29.73F
FREDERICKSBRG* FAIR      46  28  49 CALM      29.71F
STAFFORD*      FAIR      45  25  44 W5        29.75F
WARRENTON      FAIR      48  29  47 CALM      29.70F
CULPEPER*      FAIR      45  25  45 W5        29.72F
MANASSAS*      SUNNY     46  28  49 SE3       29.71F
LEESBURG*      FAIR      46  30  53 SW7       29.71F
WINCHESTER     FAIR      43  23  45 SE7       29.68F
FRONT ROYAL*   FAIR      45  23  42 S3        29.68F
LURAY*         FAIR      43  27  52 S5        29.68F
$$

VAZ048-049-060>072-079>083-081900-
CENTRAL AND SOUTH CENTRAL VIRGINIA

CITY           SKY/WX    TMP DP  RH WIND       PRES   REMARKS
RICHMOND       PTSUNNY   47  25  42 VRB3      29.71F
CHESTERFIELD*  FAIR     N/A N/A N/A CALM      29.73F
PETERSBURG*    FAIR      50  14  23 CALM      29.72F
HANOVER        FAIR      47  26  44 VRB6      29.73F
TAPPAHANNOCK*  FAIR      46  27  48 CALM      29.72F
QUINTON*       FAIR      47  28  49 CALM      29.71F
CHARLOTTSVILLE FAIR      46  21  37 VRB6      29.70F
GORDONSVILLE*  FAIR      45  22  39 S7        29.70F
ORANGE*        FAIR      46  21  36 SW6       29.72F
LOUISA*        FAIR      48  23  37 W5        29.69F
BUMPASS*       FAIR      46  22  39 MISG      29.71F
FARMVILLE*     FAIR      51  22  32 E5        29.69F
CREWE*         FAIR      49  23  36 CALM      29.70F
FORT PICKETT*  FAIR      49  20  32 SW5       29.71F
CHASE CITY*    FAIR      50  22  33 S6        29.71F
CLARKSVILLE*   FAIR      50  27  40 CALM      29.71F
SOUTH HILL*    FAIR      49  26  41 SW5       29.77F
LAWRENCEVILLE* FAIR      47  23  38 CALM      29.71F
EMPORIA*       FAIR      46  25  42 SW5       29.74F
$$

VAZ088>098-081900-
SOUTHEAST VIRGINIA

CITY           SKY/WX    TMP DP  RH WIND       PRES   REMARKS
NORFOLK        FAIR      44  31  60 NE6       29.73F
VIRGINIA BEACH FAIR      49  32  52 W5        29.72F
NORFOLK NAVAL  FAIR      46  31  55 E7        29.74F
WEST POINT*    FAIR      45  29  53 SW3       29.74F
SALUDA*        FAIR      46  32  57 S5        29.72F
NEWPORT NEWS   FAIR      47  33  58 E6        29.72F
LANGLEY AFB    MOSUNNY   45  33  62 E8        29.71F
FORT EUSTIS    PTSUNNY   46  27  47 SW6       29.71F
WILLIAMSBURG*  FAIR      48  34  57 CALM      29.74F
HR EXEC AP*    FAIR      48  30  49 CALM      29.74F
FRANKLIN*      FAIR      47  29  50 NW5       29.74F
US460-WAKEFLD  FAIR      49  27  42 CALM      29.72F
$$

VAZ020-022-025-037-045-081900-
WEST CENTRAL AND SOUTHWEST VIRGINIA

CITY           SKY/WX    TMP DP  RH WIND       PRES   REMARKS
STAUNTON*      FAIR      49  26  40 S12       29.67F
WAYNESBORO*    FAIR      44  20  39 SE12      29.65F
HOT SPRINGS VA LGT SNOW  32  26  77 S10G16    29.57F WCI  24
LYNCHBURG      CLOUDY    44  24  45 VRB5      29.70F
DANVILLE       CLOUDY    50  27  40 SW3       29.70F
SOUTH BOSTON*  MOCLDY    50  25  37 S3        29.71F
MARTINSVILLE   CLOUDY    44  25  47 SW5       29.70F
ROANOKE        CLOUDY    42  27  55 SE9       29.69F
BLACKSBURG     CLOUDY    42  28  58 S5        29.65F
DUBLIN*        CLOUDY    41  30  66 CALM      29.65F
MARION*        SNOW      34  32  93 W12       29.66F VSB 1/4
HILLSVILLE*    CLOUDY    39  24  55 SW18G24   29.61F
RICHLANDS*     CLOUDY    36  29  75 SW7G16    29.62F
WISE*          FAIR      41  19  42 SW14      29.61F
ABINGDON*      CLOUDY    37  35  90 W7        29.66F
$$

MDZ021>025-VAZ099-100-081900-
SOUTHERN MARYLAND AND THE DELMARVA PENINSULA

CITY           SKY/WX    TMP DP  RH WIND       PRES   REMARKS
PATUXENT RIVER PTSUNNY   44  29  55 E7        29.72F
BAY BRIDGE APT   N/A     41  30  65 NW6       29.73F
LEONARDTOWN    SUNNY     43  30  61 CALM      29.73F
DOVER          PTSUNNY   43  32  65 N7        29.70F
GEORGETOWN     CLOUDY    42  31  64 E10       29.72F
EASTON         CLOUDY    43  30  61 E12       29.76F
CAMBRIDGE      CLOUDY    43  32  65 CALM      29.72F
SALISBURY      CLOUDY    43  33  68 CALM      29.72F
OCEAN CITY     CLOUDY    42  32  67 NE15G23   29.72F
WALLOPS ISLAND CLOUDY    43  33  68 E12       29.74F
ACCOMACK*      CLOUDY    41  30  65 W7        29.73F
$$

NCZ012>017-030>032-081900-
NORTH CENTRAL AND EASTERN NORTH CAROLINA

CITY           SKY/WX    TMP DP  RH WIND       PRES   REMARKS
ROANOKE RAPIDS FAIR      46  27  46 CALM      29.74F
RALEIGH        PTSUNNY   53  27  36 S6        29.72F
ELIZABETH CITY SUNNY     49  33  54 NE3       29.74F
AHOSKIE*       SUNNY     48  23  37 CALM      29.74F
EDENTON*       SUNNY     49  31  49 W6        29.75F
CURRITUCK*     SUNNY     47  34  60 NE8       29.74F
KILL DEVIL HLS MOSUNNY   51  34  52 CALM      29.73F
MANTEO         SUNNY     45  33  64 N7        29.76F
CAPE HATTERAS  SUNNY     48  33  56 W7        29.77F
TARBORO*       FAIR      51  27  39 CALM      29.76F
GOLDSBORO      SUNNY     54  30  40 SW10      29.73F
WASHINGTON     SUNNY     50  29  44 CALM      29.76F
GREENVILLE     SUNNY     52  30  43 SW5       29.78F
NEW BERN       SUNNY     53  29  39 W5        29.77F
WILMINGTON     SUNNY     54  34  46 SE10      29.78F
$$

VAZ048-081900-
ELSEWHERE

CITY           SKY/WX    TMP DP  RH WIND       PRES   REMARKS
HARRISBURG PA  PTSUNNY   40  27  59 SE7       29.70F
BALTIMORE      MOSUNNY   43  28  55 NE8       29.72F
ANNAPOLIS      SUNNY     43  29  57 CALM      29.72F
ANDREWS AFB    FAIR      45  29  54 VRB2      29.70F
PHILADELPHIA   CLOUDY    42  26  53 NE14      29.72F
HENDERSON NC   SUNNY     52  24  34 S3        29.71F
GREENSBORO     CLOUDY    50  25  37 S14       29.66F
ROCKY MOUNT    SUNNY     52  30  43 S9        29.74F
$$

VAZ100-081900-
MARINE

STATION/POSITION TIME  TEMP    WIND        PRES    WAVE   SWELL
                       AIR SEA DIR/SP/G            HT/PER HT/PER
                 (UTC) (F)     (DEG/KT/KT) (MB)    (FT/S) (FT/S)
BRANDYWINE LGT   1700   39      40/ 13/ 15 1006.4F
CAPE MAY NJ      1700   41 42   30/  7/ 12 1006.1F
LEWES DE         1700   40 41   20/ 10/ 11 1006.6F
15NM E FENWICK I 1750   39 44              1006.0R  15/13
OCEAN-CITY-INLET 1700   40 41   40/ 10/ 15 1006.2F
WACHAPREAGUE VA  1700   42 42   70/  9/ 12 1007.4F
THOMAS POINT MD  1800   40 39  330/  5/  5 1007.3F
GOOSES REEF MD   1800   40 40  350/  8/  8 1007.6F   1
COVE POINT MD    1700   38     350/ 11/ 13 1008.3F
SOLOMONS ISLAND  1700   42 41  270/  5/  7   N/A
BISHOPS HEAD MD  1700   44 40   40/  5/  7 1006.5F
POTOMAC MD       1800   41 41  180/  4/  6 1005.6F   0
CAMBRIDGE MD     1700   42 40   80/  5/  6 1006.5F
LEWISETTA VA     1700   41 41  120/  2/  3 1007.6F
RAPPAHANNOCK LGT 1700          330/ 11/ 12 1008.0F
STINGRAY PT      1800   42 42   50/  4/  6 1006.7F   1/ 3
YORK RVR RNG VA  1700   42     360/  3/  4 1007.3F
YORKTOWN VA      1700   43 42  110/  4/  5 1007.4F
JAMESTOWN VA     1800   42 44  140/  4/  4   N/A     0
DOMINION TERM VA 1700   42     240/  3/  4 1007.7F
KIPTOPEKE VA     1700      42  310/ 12/ 13   N/A
CHES BAY BRIDGE  1700   42 44  310/  8/  9 1007.7F
CAPE HENRY VA    1700   41     320/ 10/ 12   N/A
CHESAPEAKE LGHT  1700   41     340/ 11/ 13 1008.5F
WILLOUBY STN VA  1700   41      70/  5/  6   N/A
CAPE HENRY BUOY  1728      46                N/A     8/13   5/13
1ST LANDING BUOY 1800      44                N/A     5/ 7
CAPE CHARLES BUO 1726      44                N/A     8/12   8/12
OFFSHORE WE BUOY 1721      47                N/A    10/11  10/11
64NM E OF VA BCH 1750   44 52  330/ 17/ 23 1005.8F  17/14  16/14
DUCK PIER NC     1700   42     350/  8/ 10 1007.3F
44100 DUCK FRF   1724      47                N/A    13/13  10/13
44056 DUCK FRF   1711      44                N/A    10/13   8/13
OREGON INLET NC  1700   44 45  310/  8/ 12 1008.1F
HATTERAS NC      1700   43 50  290/ 10/ 12 1008.2F
DIAMOND SHLS NC  1750   44 52  310/ 10/ 12 1008.4F  14/15  13/15
$$




USA.gov is the U.S. government's official web portal to all federal, state and local government web resources and services.